COSMOS 2463 [+]

Last updated on Wed Jun 28 2023 00:03:31 GMT+0000 (Coordinated Universal Time)

1 36519U 10017A 23178.15063171 .00000074 00000+0 65322-4 0 9990 2 36519 82.9609 327.5822 0034814 263.1363 270.2558 13.71511967659148
UTC large
Height (km)
Speed (km/s)
/
Latitude / Longitude
Inclination (degrees)
Orbital Period (minutes)
Azimuth
Elevation
Range (km)
Doppler Factor

Next 0 passes for location: London (51.5072 / 0.1276)

Sorry there are no passes over London.
COSMOS 2463 [+]